Regional Weather Roundup
Issued by NWS

Home | Current Version | Previous Version | Graphics & Text | Print | Product List | Glossary Off
Versions: 1 2 3 4 5 6 7 8 9 10 11 12 13 14 15 16 17 18 19 20 21 22 23 24 25 26 27 28 29 30 31 32 33 34 35 36 37 38 39 40 41 42 43 44 45 46 47 48 49 50

000
ASUS43 KLSX 231959
RWRMO

WEATHER SUMMARY FOR MISSOURI
NATIONAL WEATHER SERVICE SPRINGFIELD MO
200 PM CST SUN NOV 23 2014

NOTE: "FAIR" INDICATES FEW OR NO CLOUDS BELOW 12,000 FEET WITH NO
       SIGNIFICANT WEATHER AND/OR OBSTRUCTIONS TO VISIBILITY.
       CURRENT SKY AND/OR WEATHER CONDITIONS ARE NOT AVAILABLE FOR
       CHILLICOTHE AND FARMINGTON.

MOZ001>031-035>038-043-044-053-054-232100-
...NORTHERN AND WESTERN MISSOURI...

CITY           SKY/WX    TMP DP  RH WIND       PRES   REMARKS
KANSAS CTY INT CLOUDY    56  55  97 SW6       29.35F FOG
KANSAS C DTWN  LGT RAIN  58  55  90 CALM      29.34F FOG
ST JOSEPH      CLOUDY    56  54  93 CALM      29.36S
CHILLICOTHE      N/A     56  55  97 S6        29.36F
KIRKSVILLE     LGT RAIN  54  54 100 SW7       29.37F FOG

$$
MOZ066>068-077>081-088>096-101>105-232100-
...SOUTHWEST MISSOURI...

CITY           SKY/WX    TMP DP  RH WIND       PRES   REMARKS
SPRINGFIELD    CLOUDY    59  55  87 S10       29.34F
JOPLIN         PTSUNNY   65  53  65 S3        29.31F

$$
MOZ032>034-039>042-045>050-055>058-069>072-232100-
...CENTRAL MISSOURI...

CITY           SKY/WX    TMP DP  RH WIND       PRES   REMARKS
COLUMBIA       LGT RAIN  54  54 100 S8        29.38F FOG
JEFFERSON CITY CLOUDY    54  53  97 E3        29.38F FOG
ROLLA          LGT RAIN  54  52  93 S8        29.36F
SEDALIA        CLOUDY    56  54  93 SE7       29.36F
WHITEMAN AFB   CLOUDY    55  54  94 SE5       29.34F FOG
WARRENSBURG    CLOUDY    55  54  94 S5        29.35F
OSAGE BEACH    CLOUDY    55  52  88 SE5       29.37F

$$
MOZ051-052-059>065-232100-
...EAST CENTRAL MISSOURI...

CITY           SKY/WX    TMP DP  RH WIND       PRES   REMARKS
ST LOUIS INTL  RAIN      56  52  86 SE12      29.42F FOG
SPIRIT OF STL  LGT RAIN  55  53  93 CALM      29.40F FOG
ST CHARLES     RAIN      54  53  97 SE8       29.42F FOG

$$
MOZ072>076-082>087-097>100-106>115-232100-
...SOUTH CENTRAL AND SOUTHEAST MISSOURI...

CITY           SKY/WX    TMP DP  RH WIND       PRES   REMARKS
CAPE GIRARDEAU LGT RAIN  56  55  97 SE14      29.42F FOG
FARMINGTON     CLOUDY    55  54  94 E7        29.42F
POPLAR BLUFF   LGT RAIN  57  55  93 SE8       29.38F FOG
WEST PLAINS    CLOUDY    56  54  93 SE5       29.37F

$$


USA.gov is the U.S. government's official web portal to all federal, state and local government web resources and services.